Weather History for Windom, MN

Change the Weather History Date:

Sunday, January 6, 2013

  Actual Average Record
Temperature  
Mean Temperature 16 °F -  
Max Temperature 26 °F 20 °F 46 °F (2012)
Min Temperature 6 °F 3 °F -31 °F (1988)
Degree Days  
Heating Degree Days 49    
Moisture  
Dew Point 11 °F    
Average Humidity 84    
Maximum Humidity 93    
Minimum Humidity 73    
Precipitation  
Precipitation 0.00 in - - ()
Sea Level Pressure  
Sea Level Pressure 30.11 in    
Wind  
Wind Speed 10 mph (SW)    
Max Wind Speed 24 mph    
Max Gust Speed 29 mph    
Visibility 10 miles    
Events      
Averages and records for this station are not official NWS values.
T = Trace of Precipitation, MM = Missing Value Source: NWS Daily Summary

Daily Weather History Graph

Daily Weather History Graph

Search for Another Location

Airport:

Trip Planner

Search our weather history database for the weather conditions in past years. The results will help you decide how hot, cold, wet, or windy it might be!

Date:

Astronomy

Jan. 06, 2013 Rise Set
Actual Time 7:54 AM CST 4:58 PM CST
Civil Twilight 7:22 AM CST 5:31 PM CST
Nautical Twilight 6:45 AM CST 6:07 PM CST
Astronomical Twilight 6:11 AM CST 6:42 PM CST
Moon 2:05 AM CST (1/6) 12:30 PM CST (1/6)
Length of Visible Light 10h 09m
Length of Day
9h 03m
Waning Crescent, 33% of the Moon is Illuminated
Jan 6
Waning Crescent
Jan 11
New
Jan 18
First Quarter
Jan 26
Full
Feb 3
Last Quarter

Hourly Weather History & Observations

Time (CST) Temp. Windchill Dew Point Humidity Pressure Visibility Wind Dir Wind Speed Gust Speed Precip Events Conditions
12:12 AM 14.0 °F -4.3 °F 8.6 °F 79% 30.06 in 10.0 mi NW 21.9 mph - N/A   Clear
12:32 AM 14.0 °F -3.0 °F 6.8 °F 73% 30.07 in 10.0 mi NW 18.4 mph 25.3 mph N/A   Clear
12:53 AM 12.2 °F -4.3 °F 6.8 °F 79% 30.08 in 10.0 mi WNW 16.1 mph - N/A   Clear
1:12 AM 12.2 °F -3.7 °F 6.8 °F 79% 30.08 in 10.0 mi WNW 15.0 mph - N/A   Clear
1:32 AM 12.2 °F -3.7 °F 6.8 °F 79% 30.09 in 10.0 mi WNW 15.0 mph 20.7 mph N/A   Clear
1:52 AM 12.2 °F -3.7 °F 6.8 °F 79% 30.09 in 10.0 mi WNW 15.0 mph - N/A   Clear
2:12 AM 10.4 °F -4.8 °F 6.8 °F 85% 30.10 in 10.0 mi NW 12.7 mph - N/A   Clear
2:33 AM 10.4 °F -5.4 °F 8.6 °F 92% 30.11 in 10.0 mi WNW 13.8 mph - N/A   Clear
2:52 AM 10.4 °F -4.1 °F 8.6 °F 92% 30.11 in 10.0 mi WNW 11.5 mph - N/A   Clear
3:12 AM 10.4 °F -4.1 °F 8.6 °F 92% 30.11 in 10.0 mi WNW 11.5 mph - N/A   Clear
3:33 AM 10.4 °F -4.1 °F 6.8 °F 85% 30.11 in 10.0 mi WNW 11.5 mph - N/A   Clear
3:52 AM 8.6 °F -4.7 °F 6.8 °F 92% 30.11 in 10.0 mi West 9.2 mph - N/A   Clear
4:12 AM 6.8 °F -6.9 °F 5.0 °F 92% 30.12 in 10.0 mi West 9.2 mph - N/A   Clear
4:33 AM 8.6 °F -1.3 °F 6.8 °F 92% 30.11 in 10.0 mi West 5.8 mph - N/A   Mostly Cloudy
4:52 AM 10.4 °F 0.8 °F 6.8 °F 85% 30.11 in 10.0 mi WSW 5.8 mph - N/A   Overcast
5:12 AM 10.4 °F - 8.6 °F 92% 30.12 in 10.0 mi Calm Calm - N/A   Overcast
5:33 AM 12.2 °F 2.9 °F 8.6 °F 85% 30.13 in 10.0 mi NW 5.8 mph - N/A   Overcast
5:52 AM 12.2 °F 6.1 °F 8.6 °F 85% 30.14 in 10.0 mi West 3.5 mph - N/A   Overcast
6:12 AM 12.2 °F 4.3 °F 8.6 °F 85% 30.14 in 10.0 mi West 4.6 mph - N/A   Overcast
6:33 AM 10.4 °F - 8.6 °F 92% 30.15 in 10.0 mi Calm Calm - N/A   Overcast
6:52 AM 10.4 °F 2.2 °F 8.6 °F 92% 30.15 in 10.0 mi WSW 4.6 mph - N/A   Overcast
7:13 AM 10.4 °F 2.2 °F 6.8 °F 85% 30.14 in 10.0 mi SW 4.6 mph - N/A   Scattered Clouds
7:32 AM 8.6 °F - 6.8 °F 92% 30.16 in 10.0 mi Calm Calm - N/A   Clear
7:52 AM 6.8 °F -3.5 °F 5.0 °F 92% 30.16 in 10.0 mi WSW 5.8 mph - N/A   Clear
8:13 AM 6.8 °F - 5.0 °F 92% 30.16 in 10.0 mi Calm Calm - N/A   Clear
8:32 AM 6.8 °F - 5.0 °F 92% 30.16 in 10.0 mi Calm Calm - N/A   Clear
8:52 AM 8.6 °F -1.3 °F 6.8 °F 92% 30.17 in 10.0 mi WSW 5.8 mph - N/A   Clear
9:32 AM 10.4 °F - 8.6 °F 92% 30.18 in 10.0 mi Calm Calm - N/A   Clear
9:52 AM 12.2 °F - 8.6 °F 85% 30.19 in 10.0 mi Calm Calm - N/A   Clear
10:13 AM 14.0 °F - 8.6 °F 79% 30.20 in 10.0 mi Calm Calm - N/A   Clear
10:32 AM 14.0 °F - 8.6 °F 79% 30.20 in 10.0 mi Calm Calm - N/A   Clear
10:52 AM 15.8 °F - 10.4 °F 79% 30.21 in 10.0 mi Calm Calm - N/A   Clear
11:13 AM 15.8 °F - 10.4 °F 79% 30.21 in 10.0 mi Calm Calm - N/A   Clear
11:32 AM 15.8 °F - 10.4 °F 79% 30.20 in 10.0 mi Calm Calm - N/A   Clear
11:52 AM 17.6 °F - 10.4 °F 73% 30.19 in 10.0 mi Calm Calm - N/A   Clear
12:13 PM 17.6 °F - 12.2 °F 79% 30.18 in 10.0 mi Calm Calm - N/A   Clear
12:32 PM 17.6 °F - 12.2 °F 79% 30.17 in 10.0 mi Calm Calm - N/A   Clear
12:52 PM 17.6 °F - 12.2 °F 79% 30.17 in 10.0 mi Calm Calm - N/A   Clear
1:13 PM 19.4 °F - 12.2 °F 74% 30.16 in 10.0 mi Calm Calm - N/A   Clear
1:32 PM 19.4 °F 14.3 °F 14.0 °F 80% 30.16 in 10.0 mi SSW 3.5 mph - N/A   Clear
1:52 PM 21.2 °F - 14.0 °F 74% 30.14 in 10.0 mi Calm Calm - N/A   Clear
2:12 PM 21.2 °F 12.6 °F 15.8 °F 80% 30.14 in 10.0 mi SSW 6.9 mph - N/A   Clear
2:53 PM 19.4 °F 8.6 °F 15.8 °F 86% 30.14 in 10.0 mi SSW 9.2 mph - N/A   Clear
3:12 PM 19.4 °F 7.2 °F 15.8 °F 86% 30.14 in 10.0 mi South 11.5 mph - N/A   Clear
3:32 PM 19.4 °F 7.9 °F 14.0 °F 80% 30.13 in 10.0 mi SSW 10.4 mph - N/A   Clear
3:53 PM 19.4 °F 11.5 °F 14.0 °F 80% 30.14 in 10.0 mi South 5.8 mph - N/A   Clear
4:12 PM 19.4 °F 10.4 °F 15.8 °F 86% 30.13 in 10.0 mi South 6.9 mph - N/A   Clear
4:53 PM 17.6 °F 9.3 °F 14.0 °F 86% 30.13 in 10.0 mi SSW 5.8 mph - N/A   Clear
5:12 PM 17.6 °F 7.3 °F 14.0 °F 86% 30.12 in 10.0 mi South 8.1 mph - N/A   Clear
5:32 PM 17.6 °F 7.3 °F 14.0 °F 86% 30.11 in 10.0 mi South 8.1 mph - N/A   Clear
5:53 PM 17.6 °F 7.3 °F 14.0 °F 86% 30.11 in 10.0 mi South 8.1 mph - N/A   Clear
6:12 PM 17.6 °F 10.7 °F 14.0 °F 86% 30.11 in 10.0 mi South 4.6 mph - N/A   Clear
6:32 PM 17.6 °F 10.7 °F 15.8 °F 93% 30.10 in 10.0 mi South 4.6 mph - N/A   Clear
6:53 PM 19.4 °F 9.5 °F 15.8 °F 86% 30.09 in 10.0 mi South 8.1 mph - N/A   Clear
7:32 PM 17.6 °F 7.3 °F 15.8 °F 93% 30.07 in 10.0 mi South 8.1 mph - N/A   Clear
7:53 PM 19.4 °F 8.6 °F 15.8 °F 86% 30.05 in 10.0 mi South 9.2 mph - N/A   Clear
8:12 PM 19.4 °F 6.6 °F 15.8 °F 86% 30.05 in 10.0 mi South 12.7 mph - N/A   Clear
8:32 PM 19.4 °F 6.0 °F 15.8 °F 86% 30.03 in 10.0 mi South 13.8 mph - N/A   Clear
8:52 PM 19.4 °F 6.6 °F 15.8 °F 86% 30.03 in 10.0 mi South 12.7 mph - N/A   Clear
9:52 PM 21.2 °F 8.3 °F 15.8 °F 80% 29.99 in 10.0 mi South 13.8 mph 18.4 mph N/A   Clear
10:12 PM 21.2 °F 7.3 °F 17.6 °F 86% 29.98 in 10.0 mi South 16.1 mph - N/A   Clear
10:33 PM 24.8 °F 10.7 °F 17.6 °F 74% 29.98 in 10.0 mi South 19.6 mph 26.5 mph N/A   Clear
10:52 PM 24.8 °F 11.1 °F 17.6 °F 74% 29.95 in 10.0 mi South 18.4 mph 26.5 mph N/A   Clear
11:33 PM 26.6 °F 11.7 °F 19.4 °F 74% 29.92 in 10.0 mi South 24.2 mph 28.8 mph N/A   Clear
11:52 PM 26.6 °F 13.4 °F 19.4 °F 74% 29.92 in 10.0 mi South 18.4 mph 27.6 mph N/A   Clear